owner,sensor,date,latitude,longitude,vertical_datum,sea_water_temperature,qcFlag
Shell,ioos:station:wmo:42877:2,2022-01-04T14:52:00Z,27.3172,-90.1100,10.3,23.6,11111222
Shell,ioos:station:wmo:42877:2,2022-01-04T15:01:00Z,27.3172,-90.1100,10.2,23.6,11111222
Shell,ioos:station:wmo:42877:2,2022-01-04T15:12:00Z,27.3172,-90.1100,10.2,23.7,11111222
Shell,ioos:station:wmo:42877:2,2022-01-04T15:22:00Z,27.3172,-90.1100,10.2,23.7,11111222
Shell,ioos:station:wmo:42877:2,2022-01-04T15:32:00Z,27.3172,-90.1100,10.2,23.8,11111222
Shell,ioos:station:wmo:42877:2,2022-01-04T15:42:00Z,27.3172,-90.1100,10.1,23.8,11111222
Shell,ioos:station:wmo:42877:2,2022-01-04T15:52:00Z,27.3172,-90.1100,10.1,23.8,11111222
Shell,ioos:station:wmo:42877:2,2022-01-04T16:02:00Z,27.3172,-90.1100,10.1,23.8,11111222
Shell,ioos:station:wmo:42877:2,2022-01-04T16:12:00Z,27.3172,-90.1100,10.1,23.8,11111222
Shell,ioos:station:wmo:42877:2,2022-01-04T16:22:00Z,27.3172,-90.1100,10.1,23.8,11111222
Shell,ioos:station:wmo:42877:2,2022-01-04T16:32:00Z,27.3172,-90.1100,10.0,23.8,11111222
Shell,ioos:station:wmo:42877:2,2022-01-04T16:42:00Z,27.3172,-90.1100,10.0,23.8,11111222
Shell,ioos:station:wmo:42877:2,2022-01-04T16:52:00Z,27.3172,-90.1100,10.0,23.9,11111222
Shell,ioos:station:wmo:42877:2,2022-01-04T17:02:00Z,27.3172,-90.1100,10.1,23.9,11111222
Shell,ioos:station:wmo:42877:2,2022-01-04T17:12:00Z,27.3172,-90.1100,10.1,23.9,11111222
Shell,ioos:station:wmo:42877:2,2022-01-04T17:22:00Z,27.3172,-90.1100,10.0,23.9,11111222
Shell,ioos:station:wmo:42877:2,2022-01-04T17:32:00Z,27.3172,-90.1100,10.0,23.9,11111222
Shell,ioos:station:wmo:42877:2,2022-01-04T17:42:00Z,27.3172,-90.1100,10.0,23.9,11111222
Shell,ioos:station:wmo:42877:2,2022-01-04T17:52:00Z,27.3172,-90.1100,10.0,23.9,11111222
Shell,ioos:station:wmo:42877:2,2022-01-04T18:02:00Z,27.3172,-90.1100,10.0,23.9,11111222
Shell,ioos:station:wmo:42877:2,2022-01-04T18:12:00Z,27.3172,-90.1100,10.0,23.9,11111222
Shell,ioos:station:wmo:42877:2,2022-01-04T18:22:00Z,27.3172,-90.1100,9.9,23.9,11111222
Shell,ioos:station:wmo:42877:2,2022-01-04T18:32:00Z,27.3172,-90.1100,9.9,23.9,11111222
Shell,ioos:station:wmo:42877:2,2022-01-04T18:42:00Z,27.3172,-90.1100,9.9,23.9,11111222
Shell,ioos:station:wmo:42877:2,2022-01-04T18:52:00Z,27.3172,-90.1100,10.0,23.9,11111222
Shell,ioos:station:wmo:42877:2,2022-01-04T19:02:00Z,27.3172,-90.1100,10.0,23.9,11111222
Shell,ioos:station:wmo:42877:2,2022-01-04T19:12:00Z,27.3172,-90.1100,10.0,23.9,11111222
Shell,ioos:station:wmo:42877:2,2022-01-04T19:22:00Z,27.3172,-90.1100,10.0,23.9,11111222
Shell,ioos:station:wmo:42877:2,2022-01-04T19:32:00Z,27.3172,-90.1100,10.1,24.0,11111222
Shell,ioos:station:wmo:42877:2,2022-01-04T19:42:00Z,27.3172,-90.1100,10.0,24.0,11111222
Shell,ioos:station:wmo:42877:2,2022-01-04T19:52:00Z,27.3172,-90.1100,10.0,24.0,11111222
Shell,ioos:station:wmo:42877:2,2022-01-04T20:02:00Z,27.3172,-90.1100,10.0,24.0,11111222
Shell,ioos:station:wmo:42877:2,2022-01-04T20:12:00Z,27.3172,-90.1100,10.0,24.1,11111222
Shell,ioos:station:wmo:42877:2,2022-01-04T20:22:00Z,27.3172,-90.1100,10.1,24.2,11111222
Shell,ioos:station:wmo:42877:2,2022-01-04T20:32:00Z,27.3172,-90.1100,10.1,24.2,11111222
Shell,ioos:station:wmo:42877:2,2022-01-04T20:42:00Z,27.3172,-90.1100,10.1,24.2,11111222
Shell,ioos:station:wmo:42877:2,2022-01-04T20:52:00Z,27.3172,-90.1100,10.2,24.2,11111222
Shell,ioos:station:wmo:42877:2,2022-01-04T21:02:00Z,27.3172,-90.1100,10.1,24.3,11111222
Shell,ioos:station:wmo:42877:2,2022-01-04T21:12:00Z,27.3172,-90.1100,10.2,24.3,11111222
Shell,ioos:station:wmo:42877:2,2022-01-04T21:22:00Z,27.3172,-90.1100,10.2,24.3,11111222
Shell,ioos:station:wmo:42877:2,2022-01-04T21:32:00Z,27.3172,-90.1100,10.2,24.3,11111222
Shell,ioos:station:wmo:42877:2,2022-01-04T21:42:00Z,27.3172,-90.1100,10.3,24.3,11111222
Shell,ioos:station:wmo:42877:2,2022-01-04T21:52:00Z,27.3172,-90.1100,10.2,24.3,11111222
Shell,ioos:station:wmo:42877:2,2022-01-04T22:02:00Z,27.3172,-90.1100,9.9,24.3,11111222
Shell,ioos:station:wmo:42877:2,2022-01-04T22:12:00Z,27.3172,-90.1100,10.0,24.3,11111222
Shell,ioos:station:wmo:42877:2,2022-01-04T22:22:00Z,27.3172,-90.1100,9.8,24.3,11111222
Shell,ioos:station:wmo:42877:2,2022-01-04T22:32:00Z,27.3172,-90.1100,9.9,24.3,11111222
Shell,ioos:station:wmo:42877:2,2022-01-04T22:42:00Z,27.3172,-90.1100,9.7,24.3,11111222
Shell,ioos:station:wmo:42877:2,2022-01-04T22:52:00Z,27.3172,-90.1100,9.9,24.3,11111222
Shell,ioos:station:wmo:42877:2,2022-01-04T23:02:00Z,27.3172,-90.1100,9.9,24.3,11111222
Shell,ioos:station:wmo:42877:2,2022-01-04T23:12:00Z,27.3172,-90.1100,9.8,24.3,11111222
Shell,ioos:station:wmo:42877:2,2022-01-04T23:22:00Z,27.3172,-90.1100,9.9,24.3,11111222
Shell,ioos:station:wmo:42877:2,2022-01-04T23:32:00Z,27.3172,-90.1100,10.0,24.4,11111222
Shell,ioos:station:wmo:42877:2,2022-01-04T23:42:00Z,27.3172,-90.1100,10.0,24.4,11111222
Shell,ioos:station:wmo:42877:2,2022-01-04T23:52:00Z,27.3172,-90.1100,10.0,24.4,11111222
Shell,ioos:station:wmo:42877:2,2022-01-05T00:02:00Z,27.3172,-90.1100,10.0,24.4,11111222
Shell,ioos:station:wmo:42877:2,2022-01-05T00:12:00Z,27.3172,-90.1100,10.0,24.3,11111222
Shell,ioos:station:wmo:42877:2,2022-01-05T00:22:00Z,27.3172,-90.1100,10.0,24.3,11111222
Shell,ioos:station:wmo:42877:2,2022-01-05T00:32:00Z,27.3172,-90.1100,10.0,24.3,11111222
Shell,ioos:station:wmo:42877:2,2022-01-05T00:42:00Z,27.3172,-90.1100,10.0,24.3,11111222
Shell,ioos:station:wmo:42877:2,2022-01-05T00:52:00Z,27.3172,-90.1100,10.0,24.3,11111222
Shell,ioos:station:wmo:42877:2,2022-01-05T01:02:00Z,27.3172,-90.1100,10.0,24.3,11111222
Shell,ioos:station:wmo:42877:2,2022-01-05T01:12:00Z,27.3172,-90.1100,10.0,24.3,11111222
Shell,ioos:station:wmo:42877:2,2022-01-05T01:22:00Z,27.3172,-90.1100,10.0,24.3,11111222
Shell,ioos:station:wmo:42877:2,2022-01-05T01:32:00Z,27.3172,-90.1100,10.0,24.3,11111222
Shell,ioos:station:wmo:42877:2,2022-01-05T01:42:00Z,27.3172,-90.1100,10.0,24.3,11111222
Shell,ioos:station:wmo:42877:2,2022-01-05T01:52:00Z,27.3172,-90.1100,10.1,24.3,11111222
Shell,ioos:station:wmo:42877:2,2022-01-05T02:02:00Z,27.3172,-90.1100,10.1,24.3,11111222
Shell,ioos:station:wmo:42877:2,2022-01-05T02:12:00Z,27.3172,-90.1100,10.1,24.3,11111222
Shell,ioos:station:wmo:42877:2,2022-01-05T02:22:00Z,27.3172,-90.1100,10.1,24.3,11111222
Shell,ioos:station:wmo:42877:2,2022-01-05T02:32:00Z,27.3172,-90.1100,10.1,24.3,11111222
Shell,ioos:station:wmo:42877:2,2022-01-05T02:42:00Z,27.3172,-90.1100,10.1,24.2,11111222
Shell,ioos:station:wmo:42877:2,2022-01-05T02:52:00Z,27.3172,-90.1100,10.0,24.2,11111222
Shell,ioos:station:wmo:42877:2,2022-01-05T03:02:00Z,27.3172,-90.1100,9.9,24.2,11111222
Shell,ioos:station:wmo:42877:2,2022-01-05T03:12:00Z,27.3172,-90.1100,10.0,24.2,11111222
Shell,ioos:station:wmo:42877:2,2022-01-05T03:22:00Z,27.3172,-90.1100,10.1,24.2,11111222
Shell,ioos:station:wmo:42877:2,2022-01-05T03:32:00Z,27.3172,-90.1100,10.1,24.2,11111222
Shell,ioos:station:wmo:42877:2,2022-01-05T03:42:00Z,27.3172,-90.1100,10.1,24.1,11111222
Shell,ioos:station:wmo:42877:2,2022-01-05T03:52:00Z,27.3172,-90.1100,10.0,24.1,11111222
Shell,ioos:station:wmo:42877:2,2022-01-05T04:02:00Z,27.3172,-90.1100,10.0,24.1,11111222
Shell,ioos:station:wmo:42877:2,2022-01-05T04:12:00Z,27.3172,-90.1100,10.0,24.1,11111222
Shell,ioos:station:wmo:42877:2,2022-01-05T04:22:00Z,27.3172,-90.1100,10.0,24.1,11111222
Shell,ioos:station:wmo:42877:2,2022-01-05T04:32:00Z,27.3172,-90.1100,9.9,24.1,11111222
Shell,ioos:station:wmo:42877:2,2022-01-05T04:42:00Z,27.3172,-90.1100,9.9,24.1,11111222
Shell,ioos:station:wmo:42877:2,2022-01-05T04:52:00Z,27.3172,-90.1100,9.9,24.1,11111222
Shell,ioos:station:wmo:42877:2,2022-01-05T05:02:00Z,27.3172,-90.1100,9.9,24.1,11111222
Shell,ioos:station:wmo:42877:2,2022-01-05T05:12:00Z,27.3172,-90.1100,9.9,24.0,11111222
Shell,ioos:station:wmo:42877:2,2022-01-05T05:22:00Z,27.3172,-90.1100,9.9,24.0,11111222
Shell,ioos:station:wmo:42877:2,2022-01-05T05:32:00Z,27.3172,-90.1100,9.9,24.0,11111222
Shell,ioos:station:wmo:42877:2,2022-01-05T05:42:00Z,27.3172,-90.1100,9.9,24.0,11111222
Shell,ioos:station:wmo:42877:2,2022-01-05T05:52:00Z,27.3172,-90.1100,9.9,24.0,11111222
Shell,ioos:station:wmo:42877:2,2022-01-05T06:02:00Z,27.3172,-90.1100,9.9,23.9,11111222
Shell,ioos:station:wmo:42877:2,2022-01-05T06:12:00Z,27.3172,-90.1100,9.9,23.9,11111222
Shell,ioos:station:wmo:42877:2,2022-01-05T06:22:00Z,27.3172,-90.1100,9.9,23.9,11111222
Shell,ioos:station:wmo:42877:2,2022-01-05T06:32:00Z,27.3172,-90.1100,9.9,23.9,11111222
Shell,ioos:station:wmo:42877:2,2022-01-05T06:42:00Z,27.3172,-90.1100,9.9,23.9,11111222
Shell,ioos:station:wmo:42877:2,2022-01-05T06:52:00Z,27.3172,-90.1100,9.9,23.9,11111222
Shell,ioos:station:wmo:42877:2,2022-01-05T07:02:00Z,27.3172,-90.1100,9.9,23.9,11111222
Shell,ioos:station:wmo:42877:2,2022-01-05T07:12:00Z,27.3172,-90.1100,9.9,23.9,11111222
Shell,ioos:station:wmo:42877:2,2022-01-05T07:22:00Z,27.3172,-90.1100,9.9,23.9,11111222
Shell,ioos:station:wmo:42877:2,2022-01-05T07:32:00Z,27.3172,-90.1100,9.7,23.9,11111222
Shell,ioos:station:wmo:42877:2,2022-01-05T07:42:00Z,27.3172,-90.1100,9.7,23.9,11111222
Shell,ioos:station:wmo:42877:2,2022-01-05T07:52:00Z,27.3172,-90.1100,9.7,23.9,11111222
Shell,ioos:station:wmo:42877:2,2022-01-05T08:02:00Z,27.3172,-90.1100,9.7,23.9,11111222
Shell,ioos:station:wmo:42877:2,2022-01-05T08:12:00Z,27.3172,-90.1100,9.7,23.9,11111222
Shell,ioos:station:wmo:42877:2,2022-01-05T08:22:00Z,27.3172,-90.1100,9.7,23.9,11111222
Shell,ioos:station:wmo:42877:2,2022-01-05T08:32:00Z,27.3172,-90.1100,9.7,23.9,11111222
Shell,ioos:station:wmo:42877:2,2022-01-05T08:42:00Z,27.3172,-90.1100,9.7,23.9,11111222
Shell,ioos:station:wmo:42877:2,2022-01-05T08:52:00Z,27.3172,-90.1100,9.7,23.9,11111222
Shell,ioos:station:wmo:42877:2,2022-01-05T09:02:00Z,27.3172,-90.1100,9.7,23.9,11111222
Shell,ioos:station:wmo:42877:2,2022-01-05T09:12:00Z,27.3172,-90.1100,9.7,23.9,11111222
Shell,ioos:station:wmo:42877:2,2022-01-05T09:22:00Z,27.3172,-90.1100,9.7,23.9,11111222
Shell,ioos:station:wmo:42877:2,2022-01-05T09:32:00Z,27.3172,-90.1100,9.7,23.9,11111222
Shell,ioos:station:wmo:42877:2,2022-01-05T09:42:00Z,27.3172,-90.1100,9.7,23.9,11111222
Shell,ioos:station:wmo:42877:2,2022-01-05T09:52:00Z,27.3172,-90.1100,9.7,23.9,11111222
Shell,ioos:station:wmo:42877:2,2022-01-05T10:02:00Z,27.3172,-90.1100,9.7,23.9,11111222
Shell,ioos:station:wmo:42877:2,2022-01-05T10:12:00Z,27.3172,-90.1100,9.7,23.9,11111222
Shell,ioos:station:wmo:42877:2,2022-01-05T10:22:00Z,27.3172,-90.1100,9.7,23.9,11111222
Shell,ioos:station:wmo:42877:2,2022-01-05T10:32:00Z,27.3172,-90.1100,9.7,23.9,11111222
Shell,ioos:station:wmo:42877:2,2022-01-05T10:42:00Z,27.3172,-90.1100,9.7,23.9,11111222
Shell,ioos:station:wmo:42877:2,2022-01-05T10:52:00Z,27.3172,-90.1100,9.7,23.9,11111222
Shell,ioos:station:wmo:42877:2,2022-01-05T11:02:00Z,27.3172,-90.1100,9.7,23.9,11111222
Shell,ioos:station:wmo:42877:2,2022-01-05T11:12:00Z,27.3172,-90.1100,9.7,23.9,11111222
Shell,ioos:station:wmo:42877:2,2022-01-05T11:22:00Z,27.3172,-90.1100,9.7,23.9,11111222
Shell,ioos:station:wmo:42877:2,2022-01-05T11:32:00Z,27.3172,-90.1100,9.7,23.9,11111222
Shell,ioos:station:wmo:42877:2,2022-01-05T11:42:00Z,27.3172,-90.1100,9.7,23.9,11111222
Shell,ioos:station:wmo:42877:2,2022-01-05T11:52:00Z,27.3172,-90.1100,9.7,23.9,11111222
Shell,ioos:station:wmo:42877:2,2022-01-05T12:02:00Z,27.3172,-90.1100,9.7,23.9,11111222
Shell,ioos:station:wmo:42877:2,2022-01-05T12:12:00Z,27.3172,-90.1100,9.7,23.9,11111222
Shell,ioos:station:wmo:42877:2,2022-01-05T12:22:00Z,27.3172,-90.1100,9.7,23.9,11111222
Shell,ioos:station:wmo:42877:2,2022-01-05T12:32:00Z,27.3172,-90.1100,9.7,23.9,11111222
Shell,ioos:station:wmo:42877:2,2022-01-05T12:42:00Z,27.3172,-90.1100,9.7,23.9,11111222
Shell,ioos:station:wmo:42877:2,2022-01-05T12:52:00Z,27.3172,-90.1100,9.7,23.9,11111222
Shell,ioos:station:wmo:42877:2,2022-01-05T13:02:00Z,27.3172,-90.1100,9.7,23.9,11111222
Shell,ioos:station:wmo:42877:2,2022-01-05T13:12:00Z,27.3172,-90.1100,9.7,23.9,11111222
Shell,ioos:station:wmo:42877:2,2022-01-05T13:22:00Z,27.3172,-90.1100,9.8,23.9,11111222
Shell,ioos:station:wmo:42877:2,2022-01-05T13:32:00Z,27.3172,-90.1100,9.9,23.9,11111222
Shell,ioos:station:wmo:42877:2,2022-01-05T13:42:00Z,27.3172,-90.1100,9.9,23.9,11111222
Shell,ioos:station:wmo:42877:2,2022-01-05T13:52:00Z,27.3172,-90.1100,9.9,23.9,11111222
Shell,ioos:station:wmo:42877:2,2022-01-05T14:02:00Z,27.3172,-90.1100,9.8,23.9,11111222
Shell,ioos:station:wmo:42877:2,2022-01-05T14:12:00Z,27.3172,-90.1100,9.8,23.9,11111222
Shell,ioos:station:wmo:42877:2,2022-01-05T14:22:00Z,27.3172,-90.1100,9.9,23.9,11111222
Shell,ioos:station:wmo:42877:2,2022-01-05T14:32:00Z,27.3172,-90.1100,9.9,23.9,11111222
Shell,ioos:station:wmo:42877:2,2022-01-05T14:42:00Z,27.3172,-90.1100,10.0,23.9,11111222
Shell,ioos:station:wmo:42877:2,2022-01-05T14:52:00Z,27.3172,-90.1100,10.0,23.9,11111222
Shell,ioos:station:wmo:42877:2,2022-01-05T15:02:00Z,27.3172,-90.1100,9.8,23.9,11111222
Shell,ioos:station:wmo:42877:2,2022-01-05T15:12:00Z,27.3172,-90.1100,9.9,23.9,11111222
Shell,ioos:station:wmo:42877:2,2022-01-05T15:22:00Z,27.3172,-90.1100,10.0,23.9,11111222
Shell,ioos:station:wmo:42877:2,2022-01-05T15:32:00Z,27.3172,-90.1100,10.0,23.9,11111222
Shell,ioos:station:wmo:42877:2,2022-01-05T15:42:00Z,27.3172,-90.1100,10.0,23.9,11111222
Shell,ioos:station:wmo:42877:2,2022-01-05T15:52:00Z,27.3172,-90.1100,10.0,23.9,11111222
Shell,ioos:station:wmo:42877:2,2022-01-05T16:02:00Z,27.3172,-90.1100,10.0,23.9,11111222
Shell,ioos:station:wmo:42877:2,2022-01-05T16:12:00Z,27.3172,-90.1100,10.1,23.9,11111222
Shell,ioos:station:wmo:42877:2,2022-01-05T16:22:00Z,27.3172,-90.1100,10.1,23.9,11111222
Shell,ioos:station:wmo:42877:2,2022-01-05T16:32:00Z,27.3172,-90.1100,10.1,23.9,11111222
Shell,ioos:station:wmo:42877:2,2022-01-05T16:42:00Z,27.3172,-90.1100,10.1,23.9,11111222
Shell,ioos:station:wmo:42877:2,2022-01-05T16:52:00Z,27.3172,-90.1100,10.1,23.9,11111222
Shell,ioos:station:wmo:42877:2,2022-01-05T17:02:00Z,27.3172,-90.1100,10.2,23.9,11111222
Shell,ioos:station:wmo:42877:2,2022-01-05T17:12:00Z,27.3172,-90.1100,10.1,23.9,11111222
Shell,ioos:station:wmo:42877:2,2022-01-05T17:22:00Z,27.3172,-90.1100,9.9,23.9,11111222
Shell,ioos:station:wmo:42877:2,2022-01-05T17:32:00Z,27.3172,-90.1100,10.0,23.9,11111222
Shell,ioos:station:wmo:42877:2,2022-01-05T17:42:00Z,27.3172,-90.1100,10.0,23.9,11111222
Shell,ioos:station:wmo:42877:2,2022-01-05T17:52:00Z,27.3172,-90.1100,10.0,23.9,11111222
Shell,ioos:station:wmo:42877:2,2022-01-05T18:02:00Z,27.3172,-90.1100,10.0,23.9,11111222
Shell,ioos:station:wmo:42877:2,2022-01-05T18:12:00Z,27.3172,-90.1100,10.0,23.9,11111222
Shell,ioos:station:wmo:42877:2,2022-01-05T18:22:00Z,27.3172,-90.1100,10.0,23.9,11111222
Shell,ioos:station:wmo:42877:2,2022-01-05T18:32:00Z,27.3172,-90.1100,10.0,23.9,11111222
Shell,ioos:station:wmo:42877:2,2022-01-05T18:42:00Z,27.3172,-90.1100,10.1,23.9,11111222
Shell,ioos:station:wmo:42877:2,2022-01-05T18:52:00Z,27.3172,-90.1100,9.9,23.9,11111222
Shell,ioos:station:wmo:42877:2,2022-01-05T19:02:00Z,27.3172,-90.1100,10.0,23.9,11111222
Shell,ioos:station:wmo:42877:2,2022-01-05T19:12:00Z,27.3172,-90.1100,10.1,23.9,11111222
Shell,ioos:station:wmo:42877:2,2022-01-05T19:22:00Z,27.3172,-90.1100,10.1,23.9,11111222
Shell,ioos:station:wmo:42877:2,2022-01-05T19:32:00Z,27.3172,-90.1100,10.1,23.9,11111222
Shell,ioos:station:wmo:42877:2,2022-01-05T19:42:00Z,27.3172,-90.1100,10.2,24.0,11111222
Shell,ioos:station:wmo:42877:2,2022-01-05T19:52:00Z,27.3172,-90.1100,10.2,24.0,11111222
Shell,ioos:station:wmo:42877:2,2022-01-05T20:02:00Z,27.3172,-90.1100,10.3,24.0,11111222
Shell,ioos:station:wmo:42877:2,2022-01-05T20:12:00Z,27.3172,-90.1100,10.3,24.0,11111222
Shell,ioos:station:wmo:42877:2,2022-01-05T20:22:00Z,27.3172,-90.1100,10.2,24.0,11111222
Shell,ioos:station:wmo:42877:2,2022-01-05T20:32:00Z,27.3172,-90.1100,10.0,24.0,11111222
Shell,ioos:station:wmo:42877:2,2022-01-05T20:42:00Z,27.3172,-90.1100,10.0,24.0,11111222
Shell,ioos:station:wmo:42877:2,2022-01-05T20:52:00Z,27.3172,-90.1100,9.9,24.0,11111222
Shell,ioos:station:wmo:42877:2,2022-01-05T21:02:00Z,27.3172,-90.1100,9.9,24.0,11111222
Shell,ioos:station:wmo:42877:2,2022-01-05T21:12:00Z,27.3172,-90.1100,10.0,24.0,11111222
Shell,ioos:station:wmo:42877:2,2022-01-05T21:22:00Z,27.3172,-90.1100,9.9,24.0,11111222
Shell,ioos:station:wmo:42877:2,2022-01-05T21:32:00Z,27.3172,-90.1100,9.9,24.0,11111222
Shell,ioos:station:wmo:42877:2,2022-01-05T21:42:00Z,27.3172,-90.1100,9.9,24.0,11111222
Shell,ioos:station:wmo:42877:2,2022-01-05T21:52:00Z,27.3172,-90.1100,10.0,24.0,11111222
Shell,ioos:station:wmo:42877:2,2022-01-05T22:02:00Z,27.3172,-90.1100,10.0,24.0,11111222
Shell,ioos:station:wmo:42877:2,2022-01-05T22:12:00Z,27.3172,-90.1100,9.9,24.0,11111222
Shell,ioos:station:wmo:42877:2,2022-01-05T22:22:00Z,27.3172,-90.1100,9.9,24.0,11111222
Shell,ioos:station:wmo:42877:2,2022-01-05T22:32:00Z,27.3172,-90.1100,9.9,24.0,11111222
Shell,ioos:station:wmo:42877:2,2022-01-05T22:42:00Z,27.3172,-90.1100,9.9,24.0,11111222
Shell,ioos:station:wmo:42877:2,2022-01-05T22:52:00Z,27.3172,-90.1100,9.9,24.0,11111222
Shell,ioos:station:wmo:42877:2,2022-01-05T23:02:00Z,27.3172,-90.1100,9.9,24.0,11111222
Shell,ioos:station:wmo:42877:2,2022-01-05T23:12:00Z,27.3172,-90.1100,9.9,24.0,11111222
Shell,ioos:station:wmo:42877:2,2022-01-05T23:22:00Z,27.3172,-90.1100,9.9,24.0,11111222
Shell,ioos:station:wmo:42877:2,2022-01-05T23:32:00Z,27.3172,-90.1100,9.9,24.0,11111222
Shell,ioos:station:wmo:42877:2,2022-01-05T23:42:00Z,27.3172,-90.1100,9.8,24.0,11111222
Shell,ioos:station:wmo:42877:2,2022-01-05T23:52:00Z,27.3172,-90.1100,9.8,24.0,11111222
Shell,ioos:station:wmo:42877:2,2022-01-06T00:02:00Z,27.3172,-90.1100,9.8,24.0,11111222
Shell,ioos:station:wmo:42877:2,2022-01-06T00:22:00Z,27.3172,-90.1100,9.8,24.0,11111222
Shell,ioos:station:wmo:42877:2,2022-01-06T00:32:00Z,27.3172,-90.1100,9.8,24.0,11111222
Shell,ioos:station:wmo:42877:2,2022-01-06T00:42:00Z,27.3172,-90.1100,9.8,24.0,11111222
Shell,ioos:station:wmo:42877:2,2022-01-06T00:52:00Z,27.3172,-90.1100,9.8,24.0,11111222
Shell,ioos:station:wmo:42877:2,2022-01-06T01:02:00Z,27.3172,-90.1100,9.8,24.0,11111222
Shell,ioos:station:wmo:42877:2,2022-01-06T01:12:00Z,27.3172,-90.1100,9.8,24.0,11111222
Shell,ioos:station:wmo:42877:2,2022-01-06T01:22:00Z,27.3172,-90.1100,9.8,24.0,11111222
Shell,ioos:station:wmo:42877:2,2022-01-06T01:32:00Z,27.3172,-90.1100,9.8,24.0,11111222
Shell,ioos:station:wmo:42877:2,2022-01-06T01:42:00Z,27.3172,-90.1100,9.8,24.0,11111222
Shell,ioos:station:wmo:42877:2,2022-01-06T01:52:00Z,27.3172,-90.1100,9.8,24.0,11111222
Shell,ioos:station:wmo:42877:2,2022-01-06T02:02:00Z,27.3172,-90.1100,9.8,23.9,11111222
Shell,ioos:station:wmo:42877:2,2022-01-06T02:12:00Z,27.3172,-90.1100,9.8,23.9,11111222
Shell,ioos:station:wmo:42877:2,2022-01-06T02:22:00Z,27.3172,-90.1100,9.8,23.9,11111222
Shell,ioos:station:wmo:42877:2,2022-01-06T02:32:00Z,27.3172,-90.1100,9.8,23.9,11111222
Shell,ioos:station:wmo:42877:2,2022-01-06T02:42:00Z,27.3172,-90.1100,9.7,23.9,11111222
Shell,ioos:station:wmo:42877:2,2022-01-06T02:52:00Z,27.3172,-90.1100,9.7,23.9,11111222
Shell,ioos:station:wmo:42877:2,2022-01-06T03:02:00Z,27.3172,-90.1100,9.8,23.9,11111222
Shell,ioos:station:wmo:42877:2,2022-01-06T03:12:00Z,27.3172,-90.1100,9.6,23.9,11111222
Shell,ioos:station:wmo:42877:2,2022-01-06T03:22:00Z,27.3172,-90.1100,9.7,23.8,11111222
Shell,ioos:station:wmo:42877:2,2022-01-06T03:32:00Z,27.3172,-90.1100,9.8,23.8,11111222
Shell,ioos:station:wmo:42877:2,2022-01-06T03:42:00Z,27.3172,-90.1100,9.7,23.8,11111222
Shell,ioos:station:wmo:42877:2,2022-01-06T03:52:00Z,27.3172,-90.1100,9.8,23.8,11111222
Shell,ioos:station:wmo:42877:2,2022-01-06T04:02:00Z,27.3172,-90.1100,9.9,23.7,11111222
Shell,ioos:station:wmo:42877:2,2022-01-06T04:12:00Z,27.3172,-90.1100,9.9,23.7,11111222
Shell,ioos:station:wmo:42877:2,2022-01-06T04:22:00Z,27.3172,-90.1100,9.8,23.7,11111222
Shell,ioos:station:wmo:42877:2,2022-01-06T04:32:00Z,27.3172,-90.1100,9.8,23.7,11111222
Shell,ioos:station:wmo:42877:2,2022-01-06T04:42:00Z,27.3172,-90.1100,9.8,23.6,11111222
Shell,ioos:station:wmo:42877:2,2022-01-06T04:52:00Z,27.3172,-90.1100,9.7,23.6,11111222
Shell,ioos:station:wmo:42877:2,2022-01-06T05:02:00Z,27.3172,-90.1100,9.7,23.6,11111222
Shell,ioos:station:wmo:42877:2,2022-01-06T05:12:00Z,27.3172,-90.1100,10.0,23.6,11111222
Shell,ioos:station:wmo:42877:2,2022-01-06T05:22:00Z,27.3172,-90.1100,10.0,23.6,11111222
Shell,ioos:station:wmo:42877:2,2022-01-06T05:32:00Z,27.3172,-90.1100,10.0,23.6,11111222
Shell,ioos:station:wmo:42877:2,2022-01-06T05:42:00Z,27.3172,-90.1100,10.0,23.6,11111222
Shell,ioos:station:wmo:42877:2,2022-01-06T05:52:00Z,27.3172,-90.1100,10.0,23.6,11111222
Shell,ioos:station:wmo:42877:2,2022-01-06T06:02:00Z,27.3172,-90.1100,10.0,23.6,11111222
Shell,ioos:station:wmo:42877:2,2022-01-06T06:12:00Z,27.3172,-90.1100,10.0,23.6,11111222
Shell,ioos:station:wmo:42877:2,2022-01-06T06:22:00Z,27.3172,-90.1100,10.0,23.5,11111222
Shell,ioos:station:wmo:42877:2,2022-01-06T06:32:00Z,27.3172,-90.1100,10.0,23.5,11111222
Shell,ioos:station:wmo:42877:2,2022-01-06T06:42:00Z,27.3172,-90.1100,10.0,23.5,11111222
Shell,ioos:station:wmo:42877:2,2022-01-06T06:52:00Z,27.3172,-90.1100,10.0,23.5,11111222
Shell,ioos:station:wmo:42877:2,2022-01-06T07:02:00Z,27.3172,-90.1100,10.0,23.6,11111222
Shell,ioos:station:wmo:42877:2,2022-01-06T07:12:00Z,27.3172,-90.1100,9.9,23.5,11111222
Shell,ioos:station:wmo:42877:2,2022-01-06T07:22:00Z,27.3172,-90.1100,9.8,23.5,11111222
Shell,ioos:station:wmo:42877:2,2022-01-06T07:32:00Z,27.3172,-90.1100,9.7,23.5,11111222
Shell,ioos:station:wmo:42877:2,2022-01-06T07:42:00Z,27.3172,-90.1100,9.8,23.5,11111222
Shell,ioos:station:wmo:42877:2,2022-01-06T07:52:00Z,27.3172,-90.1100,9.8,23.6,11111222
Shell,ioos:station:wmo:42877:2,2022-01-06T08:02:00Z,27.3172,-90.1100,9.7,23.5,11111222
Shell,ioos:station:wmo:42877:2,2022-01-06T08:12:00Z,27.3172,-90.1100,9.9,23.5,11111222
Shell,ioos:station:wmo:42877:2,2022-01-06T08:22:00Z,27.3172,-90.1100,9.9,23.5,11111222
Shell,ioos:station:wmo:42877:2,2022-01-06T08:32:00Z,27.3172,-90.1100,9.8,23.6,11111222
Shell,ioos:station:wmo:42877:2,2022-01-06T08:42:00Z,27.3172,-90.1100,9.8,23.6,11111222
Shell,ioos:station:wmo:42877:2,2022-01-06T08:52:00Z,27.3172,-90.1100,9.7,23.6,11111222
Shell,ioos:station:wmo:42877:2,2022-01-06T09:02:00Z,27.3172,-90.1100,9.9,23.6,11111222
Shell,ioos:station:wmo:42877:2,2022-01-06T09:12:00Z,27.3172,-90.1100,10.1,23.6,11111222
Shell,ioos:station:wmo:42877:2,2022-01-06T09:22:00Z,27.3172,-90.1100,10.1,23.6,11111222
Shell,ioos:station:wmo:42877:2,2022-01-06T09:32:00Z,27.3172,-90.1100,10.0,23.7,11111222
Shell,ioos:station:wmo:42877:2,2022-01-06T09:42:00Z,27.3172,-90.1100,10.1,23.7,11111222
Shell,ioos:station:wmo:42877:2,2022-01-06T09:52:00Z,27.3172,-90.1100,10.1,23.7,11111222
Shell,ioos:station:wmo:42877:2,2022-01-06T10:02:00Z,27.3172,-90.1100,10.1,23.7,11111222
Shell,ioos:station:wmo:42877:2,2022-01-06T10:12:00Z,27.3172,-90.1100,10.1,23.7,11111222
Shell,ioos:station:wmo:42877:2,2022-01-06T10:22:00Z,27.3172,-90.1100,10.1,23.7,11111222
Shell,ioos:station:wmo:42877:2,2022-01-06T10:32:00Z,27.3172,-90.1100,10.2,23.8,11111222
Shell,ioos:station:wmo:42877:2,2022-01-06T10:42:00Z,27.3172,-90.1100,10.1,23.8,11111222
Shell,ioos:station:wmo:42877:2,2022-01-06T10:52:00Z,27.3172,-90.1100,10.0,23.8,11111222
Shell,ioos:station:wmo:42877:2,2022-01-06T11:02:00Z,27.3172,-90.1100,10.1,23.8,11111222
Shell,ioos:station:wmo:42877:2,2022-01-06T11:12:00Z,27.3172,-90.1100,10.0,23.8,11111222
Shell,ioos:station:wmo:42877:2,2022-01-06T11:22:00Z,27.3172,-90.1100,9.9,23.8,11111222
Shell,ioos:station:wmo:42877:2,2022-01-06T11:32:00Z,27.3172,-90.1100,9.9,23.8,11111222
Shell,ioos:station:wmo:42877:2,2022-01-06T11:42:00Z,27.3172,-90.1100,9.9,23.9,11111222
Shell,ioos:station:wmo:42877:2,2022-01-06T11:52:00Z,27.3172,-90.1100,9.9,23.8,11111222